"Pseudo-MPEC" for P10Y73o

Created 2020 Mar 27 4:07:14 UT using Find_Orb

Click here for an explanation of pseudo-MPECs

 
 Astrometry: 
     P10Y73o  C2020 03 23q`4\`Astrometry^m=:WKY4_D=QcAvT]UxtO=redacted;Rdi8RKF51
     P10Y73o  C2020 03 23S6rpPk(0ay+-H]]#umUIvr!;a:mfm^9=h*ySFaRFHco`GL[:'*jSF51
     P10Y73o  C2020 03 23++oyy5F7N%X=XY$d5%3Sts.n'8^4wj]QCswZGo9Z3Lmk6\pI5DviF51
     P10Y73o  C2020 03 23D*]%vvnt@Q%=$wrj`_-clickP-i!0YE-HDk,#h\q#A?'wp-I:G.1F51
     P10Y73o  C2020 03 25.25241 13 03 33.90 +03 01 25.6    ~3P6q 21.0 GVNEOCPI52
     P10Y73o  C2020 03 25.25575 13 03 33.69 +03 01 30.9    ~3P6q       VNEOCPI52
     P10Y73o  C2020 03 25.25910 13 03 33.59 +03 01 36.7    ~3P6q 22.1 GVNEOCPI52
     P10Y73o  C2020 03 25.26244 13 03 33.43 +03 01 40.5    ~3P6q 22.9 GVNEOCPI52
     P10Y73o  C2020 03 25T_x`NW_5%][ea#G2here?#5for:vq7F$;aLIrbjXr5bb;yC`F(M?F51
     P10Y73o  C2020 03 25+bY\explanationYJ(8eCdioDQ_#TX8pt-I=40=p7\!So]3?@%_cF51
     P10Y73o  C2020 03 25CNYgYrDg*77$xaA2q8\bt^;iu(c;-YP*lrcdpQo-hs`OoL-/b\mXF51

Station data:
(F51) Pan-STARRS 1, Haleakala  (N20.707235 W156.255910)  US/Hawaii.
   Observers N. Primak, A. Schultz, S. Watters, J. Thiel, T. Goggia. Measurer
   PS1 Science Consortium. 1.8-m Ritchey-Chrétien + CCD.
(I52) Steward Observatory, Mt. Lemmon Station  (N32.442547 W110.788920)
   US/Arizona.  Observers T. A. Pruyne, B. M. Africano, E. J. Christensen, G.
   A. Farneth, D. C. Fuls, A. R. Gibbs, A. D. Grauer, H. Gröller, J. A.
   Johnson, R. A. Kowalski, S. M. Larson, G. J. Leonard, D. Rankin, R. L.
   Seaman, F. C. Shelly. 1.0-m reflector + CCD.

Orbital elements:  P10Y73o
   Perihelion 2019 Aug 10.932704 +/- 46.3 TT = 22:23:05 (JD 2458706.432704)
Epoch 2020 Mar 25.0 TT = JDT 2458933.5   Earth MOID: 0.7505   AutoNEOCP
M  88.28942324 +/- 19               (J2000 ecliptic)
n   0.38882492 +/- 0.0129           Peri.  267.65954 +/- 14
a   1.85908817 +/- 0.0411           Node   178.42425 +/- 0.8
e   0.1339994 +/- 0.0445            Incl.   22.52394 +/- 1.9
P   2.53/925.85d           H 20.3   G  0.15   U  9.9  
q 1.60997141 +/- 0.0712    Q 2.10820493 +/- 0.111
From 11 observations 2020 Mar. 23-25 (47.3 hr); mean residual 0".36
Residuals in arcseconds: 
200323 F51  .09-  .02-    200325 I52  .44-  .17-    200325 F51  .00   .02-    
200323 F51  .02-  .04+    200325 I52  .81-  .03+    200325 F51  .03-  .24+    
200323 F51  .03+  .19-    200325 I52  .47+  .72+    200325 F51  .04-  .23-    
200323 F51  .07+  .16+    200325 I52  .85+  .58-    

Ephemerides (geocentric):
Date (UTC) HH   RA              Dec         delta   r     elong  mag " sig PA
---- -- -- --  -------------   -----------  ------ ------ -----  --- ---- ---
2020 03 27 04  13 01 51.876   +03 49 57.66  .89977 1.8884 168.6 21.9 4.57   2
2020 03 27 05  13 01 49.634   +03 51 00.62  .89979 1.8885 168.7 21.9 4.75   2
2020 03 27 06  13 01 47.390   +03 52 03.56  .89982 1.8885 168.7 21.9 4.92   2
2020 03 27 07  13 01 45.146   +03 53 06.49  .89985 1.8886 168.7 21.9 5.10   2
2020 03 27 08  13 01 42.901   +03 54 09.41  .89987 1.8887 168.7 21.9 5.28   2
2020 03 27 09  13 01 40.655   +03 55 12.31  .89990 1.8887 168.7 21.9 5.47   2
2020 03 27 10  13 01 38.408   +03 56 15.19  .89993 1.8888 168.8 21.9 5.65   1
2020 03 27 11  13 01 36.160   +03 57 18.05  .89996 1.8889 168.8 21.9 5.84   1
2020 03 27 12  13 01 33.910   +03 58 20.90  .89999 1.8889 168.8 21.9 6.04   1
2020 03 27 13  13 01 31.660   +03 59 23.74  .90002 1.8890 168.8 21.9 6.23   1
2020 03 27 14  13 01 29.409   +04 00 26.55  .90005 1.8891 168.8 21.9 6.43   1
2020 03 27 15  13 01 27.157   +04 01 29.35  .90008 1.8891 168.8 21.9 6.63   1
2020 03 27 16  13 01 24.904   +04 02 32.14  .90011 1.8892 168.9 21.9 6.84   1
2020 03 27 17  13 01 22.650   +04 03 34.90  .90014 1.8893 168.9 21.9 7.04   0
2020 03 27 18  13 01 20.395   +04 04 37.65  .90017 1.8894 168.9 21.9 7.25   0
2020 03 27 19  13 01 18.139   +04 05 40.39  .90020 1.8894 168.9 21.9 7.47   0
2020 03 27 20  13 01 15.882   +04 06 43.10  .90023 1.8895 168.9 21.9 7.68   0
2020 03 27 21  13 01 13.625   +04 07 45.80  .90027 1.8896 168.9 21.9 7.90   0
2020 03 27 22  13 01 11.366   +04 08 48.48  .90030 1.8896 168.9 21.9 8.12   0
2020 03 27 23  13 01 09.106   +04 09 51.14  .90033 1.8897 169.0 21.9 8.35   0
2020 03 28 00  13 01 06.846   +04 10 53.79  .90037 1.8898 169.0 21.9 8.57   0
2020 03 28 01  13 01 04.585   +04 11 56.42  .90040 1.8898 169.0 21.9 8.80   0
2020 03 28 02  13 01 02.322   +04 12 59.02  .90044 1.8899 169.0 21.9 9.04 179
2020 03 28 03  13 01 00.059   +04 14 01.62  .90048 1.8900 169.0 21.9 9.27 179
2020 03 28 04  13 00 57.795   +04 15 04.19  .90051 1.8900 169.0 21.9 9.51 179
2020 03 28 05  13 00 55.531   +04 16 06.74  .90055 1.8901 169.0 21.9 9.75 179
2020 03 28 06  13 00 53.265   +04 17 09.28  .90059 1.8902 169.1 21.9 10.0 179
2020 03 28 07  13 00 50.998   +04 18 11.79  .90062 1.8902 169.1 21.9 10.2 179
2020 03 28 08  13 00 48.731   +04 19 14.29  .90066 1.8903 169.1 21.9 10.5 179
2020 03 28 09  13 00 46.463   +04 20 16.77  .90070 1.8904 169.1 21.9 10.8 179
2020 03 28 10  13 00 44.194   +04 21 19.23  .90074 1.8905 169.1 21.9 11.0 179
2020 03 28 11  13 00 41.924   +04 22 21.67  .90078 1.8905 169.1 21.9 11.3 179
2020 03 28 12  13 00 39.654   +04 23 24.10  .90082 1.8906 169.1 21.9 11.5 179
2020 03 28 13  13 00 37.382   +04 24 26.50  .90086 1.8907 169.1 21.9 11.8 178
2020 03 28 14  13 00 35.110   +04 25 28.88  .90090 1.8907 169.1 21.9 12.1 178
2020 03 28 15  13 00 32.837   +04 26 31.24  .90094 1.8908 169.2 21.9 12.3 178
2020 03 28 16  13 00 30.563   +04 27 33.59  .90099 1.8909 169.2 21.9 12.6 178
2020 03 28 17  13 00 28.289   +04 28 35.91  .90103 1.8909 169.2 21.9 12.9 178
2020 03 28 18  13 00 26.014   +04 29 38.22  .90107 1.8910 169.2 21.9 13.2 178
2020 03 28 19  13 00 23.738   +04 30 40.50  .90111 1.8911 169.2 21.9 13.4 178
2020 03 28 20  13 00 21.461   +04 31 42.76  .90116 1.8911 169.2 21.9 13.7 178
2020 03 28 21  13 00 19.184   +04 32 45.00  .90120 1.8912 169.2 21.9 14.0 178
2020 03 28 22  13 00 16.906   +04 33 47.23  .90125 1.8913 169.2 21.9 14.3 178
2020 03 28 23  13 00 14.627   +04 34 49.43  .90129 1.8913 169.2 21.9 14.6 178
2020 03 29 00  13 00 12.347   +04 35 51.61  .90134 1.8914 169.2 21.9 14.9 178
2020 03 29 01  13 00 10.067   +04 36 53.77  .90139 1.8915 169.2 21.9 15.2 178
2020 03 29 02  13 00 07.786   +04 37 55.91  .90143 1.8916 169.2 21.9 15.5 177
2020 03 29 03  13 00 05.504   +04 38 58.03  .90148 1.8916 169.3 21.9 15.8 177